Location: Demre
(36.2444°N, 29.9850°E)
Time: 06:00:55
(UTC+00:00)

Milstar 3 Cent rocket - Pass Details

Date: 11 March 2026
Orbit: 705 x 5145 km, 28.3° (Epoch: 21 April)

Event Time Altitude Azimuth Distance (km) Brightness Sun altitude
Rises 18:21:30 0° 262° (W) 3,481 6.4 -28.2°
Reaches altitude 10° 18:23:36 10° 255° (WSW) 2,760 5.5 -28.6°
Maximum altitude 18:29:53 48° 182° (S) 1,837 3.7 -29.8°
Enters shadow 18:31:15 45° 159° (SSE) 2,040 3.8 -30.1°
